Location: *
(46.8720°S, 173.0712°W)
Time: 12:34:25
(UTC+00:00)

Daily predictions for brighter satellites

Satellite Brightness Start Highest point End
(mag) Time Altitude Azimuth Time Altitude Azimuth Time Altitude Azimuth
CZ-4C R/B 4.0 15:35:02 30° SSE 15:35:02 30° SSE 15:38:20 10° SSE
Cosmos 1980 Rocket 4.0 15:32:43 23° NE 15:34:26 27° ENE 15:39:06 10° SE
USA 229 DEB 4.2 15:35:51 54° E 15:35:51 54° E 15:41:08 10° NE
USA 229 4.2 15:35:56 54° E 15:35:56 54° E 15:41:14 10° NE
Okean O Rocket 4.0 15:34:44 10° ENE 15:37:18 21° E 15:37:18 21° E
NOSS 3-1 (A) 4.0 15:47:29 52° ESE 15:47:29 52° ESE 15:52:17 10° ENE
Cosmos 1697 Rocket 3.3 16:02:54 50° SE 16:02:54 50° SE 16:07:07 10° SSE
USA 234 3.7 15:55:37 10° E 16:01:56 51° SSE 16:02:51 47° S
ATLAS 2AS CENTAUR R/B 4.3 16:04:40 17° S 16:04:40 17° S 16:08:46 10° SE
Cosmos 1092 Rocket 4.4 15:59:01 10° N 16:05:06 60° E 16:11:14 10° SSE
CZ-4B R/B 3.8 16:04:25 10° NE 16:09:52 55° ESE 16:12:45 28° S
Lacrosse 5 rocket 3.7 16:16:12 16° SE 16:16:12 16° SE 16:17:13 10° SE
Cosmos 1953 4.0 16:14:22 33° E 16:14:22 33° E 16:17:50 10° NE
Radarsat Rocket 4.5 16:07:51 10° NNE 16:15:02 70° ESE 16:20:01 18° S
Cosmos 1937 Rocket 3.9 16:15:36 57° SE 16:15:57 59° ESE 16:21:04 10° NE
Nadezhda 4 Rocket 4.4 16:19:04 47° S 16:19:04 47° S 16:23:29 10° S
Cosmos 1025 Rocket 4.1 16:23:13 40° SE 16:23:13 40° SE 16:26:21 10° SSE
SJ 16-02 3.6 16:30:57 15° N 16:30:57 15° N 16:31:43 10° N
NOAA 6 4.0 16:26:13 10° NNE 16:30:45 69° N 16:30:45 69° N
Cosmos 2360 4.1 16:33:53 69° NW 16:34:36 82° WSW 16:40:24 10° SSE
Meteor 1-21 4.1 16:35:56 70° W 16:36:05 70° WSW 16:41:53 10° S
MOS 1-B 4.4 16:30:56 10° N 16:36:01 57° NW 16:36:01 57° NW
ATLAS CENTAUR R/B 4.0 16:35:12 14° S 16:36:50 16° SSE 16:39:52 10° ESE
Cosmos 1726 3.0 16:43:50 44° NNE 16:43:50 44° NNE 16:46:32 10° NNE
Cosmos 1536 Rocket 3.7 16:38:46 10° N 16:43:07 72° E 16:47:32 10° SSE
Cosmos 1674 4.3 16:46:24 10° NNE 16:49:50 34° E 16:53:20 10° SSE
NOSS 2-3 (E) 4.3 16:48:22 48° WSW 16:50:03 66° WNW 16:55:24 10° NNE
Cosmos 2263 Rocket 2.4 16:49:22 25° SSW 16:52:47 70° ESE 16:58:29 10° NE
Cosmos 1627 Rocket 4.4 16:47:02 10° NNW 16:53:17 78° W 16:59:41 10° S
Cosmos 1553 Rocket 4.3 16:46:55 10° S 16:53:25 72° E 16:59:48 10° NNE
Helios 1A Rocket 4.0 16:50:11 10° NE 16:54:06 43° ESE 16:57:51 11° S
Envisat 2.9 16:51:51 10° NNE 16:56:58 86° WNW 17:01:07 16° SSW
NOAA 12 4.2 16:54:01 10° NNE 16:59:17 79° ESE 17:04:37 10° SSW
Cosmos 1461 2.8 17:03:00 59° NNW 17:03:00 59° NNW 17:06:29 10° NNE
In-Cosmos 22 4.1 16:57:59 10° N 17:03:30 84° ENE 17:08:59 10° SSE
NOSS 3-1 (C) 4.0 17:06:25 31° WNW 17:06:25 31° WNW 17:10:53 10° N
S3M 4.3 17:00:32 10° S 17:06:43 66° ESE 17:12:50 10° NNE
ATLAS 5 CENTAUR R/B 4.0 17:02:02 10° N 17:08:38 40° ENE 17:14:48 10° SE
Cosmos 2285 Rocket 4.2 17:02:17 10° SSW 17:08:45 76° ESE 17:15:13 10° NNE
Meteor 2-10 4.0 17:06:37 32° SW 17:08:51 54° W 17:13:49 10° N
USA 267 3.2 17:02:30 10° SE 17:09:10 89° NNE 17:14:36 16° NW
Cosmos 1437 3.7 17:06:19 10° N 17:09:13 44° E 17:12:12 10° SSE
Cosmos 2208 Rocket 4.1 17:05:06 10° NNW 17:10:19 80° ENE 17:15:35 10° SSE
Cosmos 1814 Rocket 4.2 17:07:18 10° NNW 17:12:36 78° ENE 17:18:02 10° SSE
Okean O Rocket 1.9 17:10:04 10° N 17:14:21 44° W 17:14:45 43° W
Cosmos 1980 Rocket 2.3 17:14:37 22° NW 17:18:07 53° WSW 17:23:39 10° SSE
Cosmos 1763 Rocket 3.7 17:15:53 28° WNW 17:18:18 46° WSW 17:23:24 10° SSE
CORIOLIS 4.1 17:14:04 10° N 17:19:30 71° WNW 17:24:59 10° SSW
Cosmos 2369 4.4 17:20:46 31° WSW 17:21:42 33° SW 17:26:53 10° SSE
CZ-4C R/B 4.0 17:20:13 19° SW 17:22:03 21° SSW 17:26:42 10° SSE
ARGOS Delta rocket 3.8 17:17:06 10° NNE 17:22:07 88° W 17:26:54 10° SSW
USA 229 DEB 4.4 17:23:20 27° W 17:25:04 31° WNW 17:30:39 10° N
USA 229 4.4 17:23:25 27° W 17:25:12 31° WNW 17:30:47 10° N
Cosmos 1726 Rocket 4.2 17:21:27 10° S 17:25:48 55° ESE 17:30:05 10° NNE
Cosmos 1898 Rocket 4.4 17:26:07 28° W 17:26:14 28° W 17:30:43 10° NNW
Cosmos 1844 Rocket 4.1 17:24:06 10° SSW 17:29:21 35° SE 17:34:32 10° ENE
Feng Yun 1-1 Rocket 4.2 17:26:35 10° N 17:32:05 76° WNW 17:37:49 10° SSW
PSLV R/B 4.0 17:31:11 10° SSE 17:35:24 87° ENE 17:39:37 10° NNW
KORONAS-FOTON 3.7 17:32:07 10° NNW 17:35:56 72° WSW 17:39:51 10° S
NOSS 3-1 (A) 4.1 17:34:58 24° WSW 17:37:11 31° WNW 17:41:56 10° N
Cosmos 2026 Rocket 4.3 17:31:45 10° NW 17:37:30 40° WSW 17:43:25 10° S
Aureole 3 Rocket 3.6 17:36:45 30° WSW 17:37:34 33° W 17:41:41 10° NNW
Cosmos 1939 Rocket 3.4 17:36:10 10° NNE 17:40:12 63° ESE 17:44:22 10° S
Cosmos 1570 Rocket 4.2 17:35:49 10° NW 17:41:03 51° WSW 17:46:21 10° SSE
Cosmos 540 Rocket 3.5 17:36:04 10° NW 17:41:10 55° WSW 17:46:20 10° SSE
Cosmos 2278 4.4 17:38:08 19° WNW 17:41:24 33° SW 17:46:34 10° SSE
SMAP 3.7 17:38:00 10° NNW 17:42:16 34° W 17:45:30 16° SW
SL-16 R/B 2.3 17:37:08 10° NNW 17:42:49 81° ENE 17:48:34 10° SSE
Cosmos 1689 Rocket 2.6 17:39:55 10° S 17:42:50 38° WSW 17:45:41 10° NW
CZ-4 R/B 2.1 17:39:18 10° NNE 17:43:28 59° ESE 17:47:43 10° S
FengYun 1-2 T 4.2 17:38:54 10° N 17:44:28 67° WNW 17:50:10 10° SSW
USA 234 3.3 17:38:11 10° NE 17:44:46 74° NW 17:50:12 16° WSW
Cosmos 1626 2.7 17:42:14 10° N 17:45:55 61° E 17:49:42 10° SSE
Cosmos 1697 Rocket 3.8 17:44:40 21° WSW 17:46:02 22° SW 17:50:27 10° S
Cosmos 841 Rocket 3.7 17:42:10 10° NW 17:47:18 48° WSW 17:52:29 10° SSE
Okean-O 2.7 17:44:35 10° NNE 17:49:04 89° E 17:53:37 10° SSW
Cosmos 2228 2.9 17:45:02 10° SSW 17:49:21 67° W 17:53:36 10° N
Cosmos 372 Rocket 4.2 17:45:25 13° SW 17:49:47 49° WNW 17:54:42 10° N
Cosmos 1953 3.5 17:50:07 22° W 17:50:21 22° W 17:53:28 10° NW
CZ-4B R/B 4.2 17:46:12 10° NNW 17:50:45 25° W 17:54:39 13° SW
SL-14 R/B 3.7 17:48:14 10° N 17:52:10 67° E 17:56:06 10° SSE
Orbus 7S? 3.6 17:49:48 10° NW 17:52:58 87° NE 17:59:30 10° SE
Lacrosse 5 rocket 3.0 17:51:51 16° SW 17:53:32 20° S 17:56:38 10° SE
CZ-2D R/B 3.5 17:51:16 10° NNE 17:55:11 76° ESE 17:59:11 10° S
Cosmos 1908 3.7 17:52:24 11° SSW 17:55:51 37° W 17:59:26 10° NNW
YAOGAN 6 3.9 17:53:35 10° NW 17:56:23 21° W 17:57:05 20° WSW
Cosmos 2098 Rocket 4.1 17:51:16 10° N 17:56:56 87° E 18:03:58 10° S
Cosmos 2150 Rocket 4.1 17:51:33 10° SSW 17:56:56 62° WNW 18:02:11 10° N
Cosmos 1125 Rocket 3.5 17:52:10 10° SSW 17:57:31 89° ESE 18:02:47 10° NNE
Meteor 2-19 Rocket 4.4 17:51:24 10° NNW 17:57:35 70° W 18:03:50 10° S
ATLAS 2AS CENTAUR R/B 4.1 17:52:34 10° SSW 17:57:49 25° SSE 18:03:19 10° E
Cosmos 1025 Rocket 4.5 18:00:15 17° WSW 18:00:15 17° WSW 18:02:57 10° SSW
Meteor 2-15 4.5 17:54:11 10° SSW 18:00:23 68° W 18:06:30 10° N
Cosmos 1300 2.8 17:57:13 10° S 18:01:08 79° E 18:04:59 10° NNE
CZ-4 R/B 4.4 17:59:56 10° N 18:04:05 66° W 18:08:16 10° SSW
SL-24 R/B 4.3 18:01:48 10° NNE 18:06:08 81° ESE 18:10:44 10° SSW
Meteor 1-24 Rocket 3.6 18:02:11 10° N 18:07:34 89° W 18:13:00 10° S
ASTEX 1 3.8 18:03:00 10° NNW 18:07:37 40° W 18:12:20 10° SSW
COSMO-SKYMED 1 2.6 18:03:51 10° S 18:08:14 62° WSW 18:12:34 10° NNW
Cosmos 1818 3.6 18:04:05 10° NNW 18:09:31 88° NE 18:14:59 10° SE
Cosmos 1892 Rocket 3.5 18:05:40 10° NNW 18:10:09 72° W 18:14:40 10° S
ADEOS Rocket 2.9 18:05:06 10° S 18:10:28 50° WSW 18:15:52 10° NW
SL-24 R/B - RUBIN 2 4.5 18:09:03 10° NNW 18:13:43 55° ENE 18:18:01 10° SE
Cosmos 1655 Rocket 4.2 18:08:10 10° NNW 18:14:11 48° WSW 18:20:17 10° S
BREEZE-M DEB (TANK) 4.4 18:12:42 12° W 18:16:23 44° NNW 18:29:13 10° NE
ATLAS CENTAUR R/B 2.3 18:11:58 10° SSW 18:16:46 58° SE 18:21:33 10° NE
YAOGAN 1 2.6 18:15:22 10° N 18:19:44 72° WNW 18:24:09 10° SSW
Cosmos 2266 Rocket 4.1 18:14:52 10° NNW 18:21:04 56° WSW 18:27:13 10° S
Cosmos 1356 Rocket 3.6 18:17:30 10° SSW 18:21:34 52° W 18:25:39 10° N
Meteor 2-5 Rocket 3.8 18:17:27 10° NNW 18:22:54 53° WSW 18:28:24 10° S
Cosmos 2322 Rocket 2.2 18:17:16 10° NW 18:22:57 63° WSW 18:28:42 10° SSE
Cosmos 1674 4.0 18:22:43 10° WNW 18:25:29 19° WSW 18:28:17 10° SSW
USA 186 3.9 18:24:46 10° ENE 18:26:49 21° ESE 18:29:01 10° SSE
Cosmos 2058 Rocket 3.3 18:23:57 10° SSW 18:28:18 52° W 18:32:38 10° N
Helios 1A Rocket 4.4 18:26:31 10° NW 18:29:28 19° W 18:32:28 10° SW
Cosmos 2315 Rocket 4.2 18:29:39 10° SSW 18:35:48 55° W 18:41:51 10° NNW
Cosmos 2263 Rocket 3.6 18:32:03 10° SW 18:36:07 20° W 18:40:10 10° NW
ARGOS 3.8 18:33:16 10° NNE 18:38:34 61° ESE 18:43:56 10° S
Meteor 2-1 Rocket 4.4 18:34:22 10° S 18:40:03 78° ESE 18:45:36 10° NNE
